Back to catalog

STARLINK-30537

AliveCommunicationsVLEO
NORAD 57991·PAYLOAD·🇺🇸 United States

Launched Oct 5, 2023 from Cape Canaveral Space Force Station

Loading…

Next Passes (next 24 hours)

TLE

FreshSource: CelesTrak SupGP

Epoch: Sep 14, 2026, 21:22 UTC

1 57991C 23153A   26257.89076389  .00041159  00000+0  14906-2 0  2575
2 57991  43.0038  78.4709 0001878 271.1448  72.8720 15.27562108    11

Track STARLINK-30537 in real time with AllMySat

Download on the App Store